Temperature
18 18 18 18 18 18 18 18 18 19 19 19 19 19 19 19 19 18 18 18 18 18 18 18 18 18 18 18 18 18 17 17 17 17 17 17 17 17 17 17 17 17 17
18 18 18 18 18 18 18 18 18 19 19 19 19 19 19 19 19 18 18 18 18 18 18 18 18 18 18 18 18 17 17 17 17 17 17 17 17 17 17 17 17 17 17
18 18 18 18 18 18 18 18 19 19 19 19 19 19 19 19 19 19 18 18 18 18 18 18 18 18 18 18 18 17 17 17 17 17 17 17 17 17 17 17 17 17 17
18 18 18 18 18 18 18 18 19 19 19 19 19 19 19 19 19 19 18 18 18 18 18 18 18 18 18 18 17 17 17 17 17 17 17 17 17 17 17 17 17 17 17
18 18 18 18 18 18 18 18 18 18 18 19 19 19 19 19 19 19 18 18 18 18 18 18 18 18 18 18 18 17 17 17 17 17 17 17 17 17 17 17 17 17 16
18 17 18 18 18 18 18 18 18 18 18 18 18 19 19 19 19 19 19 18 18 18 18 18 18 18 18 18 18 18 17 17 17 17 17 17 17 17 17 17 17 16 16
17 17 18 17 17 17 18 18 18 18 18 18 18 18 18 18 18 19 18 18 18 18 18 18 18 17 17 17 17 17 17 17 17 17 17 17 17 17 17 17 16 16 16
17 17 17 17 17 17 17 17 17 17 18 18 17 18 18 18 19 18 18 18 18 18 18 18 18 17 17 17 17 17 17 17 17 17 17 17 17 17 17 17 17 17 16
16 16 17 17 17 17 17 17 17 17 17 17 17 17 17 18 18 18 18 18 18 18 18 18 18 17 17 17 17 17 17 17 17 17 17 17 17 17 17 17 17 16 16
16 16 16 16 17 17 17 17 17 17 17 17 17 17 17 17 17 18 18 18 18 18 18 18 18 18 17 17 17 17 17 17 17 17 17 17 16 16 16 16 16 16 16
16 16 16 16 16 16 16 16 16 16 16 16 16 16 17 16 16 17 17 18 18 18 18 18 18 18 17 17 17 17 17 17 17 17 17 16 16 16 16 16 16 16 16
15 15 16 16 16 16 16 16 16 16 16 16 16 16 16 16 16 16 16 17 17 17 17 17 17 17 17 17 17 17 17 16 16 16 16 16 16 16 16 16 16 16 16
15 15 15 15 16 16 16 16 16 16 16 16 16 16 16 16 16 16 16 16 16 16 17 17 17 17 17 17 16 16 16 16 16 16 16 16 16 16 16 16 15 15 15
14 15 15 15 15 16 16 16 16 16 16 16 16 15 15 15 15 15 15 16 16 16 16 16 16 16 16 16 16 16 16 16 16 16 16 16 16 15 15 15 15 15 15
14 14 15 15 15 15 15 15 15 15 15 15 15 15 15 15 15 15 15 15 15 15 15 16 15 16 16 15 15 15 15 15 15 15 15 15 15 15 15 15 15 15 15
14 14 14 14 15 15 15 15 15 15 15 15 15 15 15 15 15 15 15 15 15 15 15 15 15 15 15 15 15 15 15 15 15 15 15 15 15 15 15 15 14 14 14
13 14 14 14 14 14 15 15 15 15 15 15 15 15 15 15 15 14 14 15 15 14 14 14 15 15 15 15 15 15 15 15 15 14 14 14 14 14 14 14 14 14 14
13 13 13 14 14 14 14 14 14 14 14 14 15 15 15 15 14 14 14 14 14 14 14 14 14 14 14 14 14 14 14 14 14 14 14 14 14 14 14 14 14 14 14
13 13 13 13 13 13 14 14 14 14 14 14 14 14 14 14 14 14 14 14 14 14 14 14 14 14 14 14 14 14 14 14 14 13 13 14 13 13 13 13 13 13 13
12 13 13 13 13 13 13 13 14 14 14 14 14 14 14 14 14 14 14 14 14 14 14 14 14 13 13 13 13 13 13 13 13 13 13 13 13 13 13 13 13 13 13
12 12 12 13 13 13 13 13 13 13 13 14 13 14 14 14 14 14 14 14 14 14 13 13 13 13 13 13 13 13 13 13 13 12 12 12 12 12 12 12 12 12 12
12 12 12 12 12 13 13 13 13 13 13 13 13 13 13 14 14 14 14 14 14 13 13 13 13 13 13 13 13 13 13 13 12 12 12 12 12 12 12 12 12 12 12
11 11 11 12 12 12 12 12 12 13 13 13 13 13 13 13 13 13 13 13 13 13 13 13 13 13 13 13 13 13 13 13 12 12 12 11 11 11 11 11 11 11 11
11 11 11 11 11 11 12 12 12 12 12 12 13 13 13 13 13 13 13 13 13 13 13 13 13 13 13 13 13 13 13 12 12 12 12 11 11 11 10 10 10 10 10
11 11 11 11 11 11 11 12 12 12 12 12 13 13 13 13 13 13 13 13 13 13 13 13 13 13 13 13 13 13 12 12 12 11 11 11 11 10 10 10 10 10 10
11 11 11 11 11 11 11 11 12 12 12 12 12 13 13 13 13 13 13 13 13 13 12 12 13 12 12 12 12 12 12 12 12 11 11 11 11 10 10 9 9 9 9
Wind_Speed
4 3 4 6 8 10 9 5 7 7 7 5 6 5 4 4 9 12 12 13 11 8 7 7 7 7 7 6 7 7 7 7 8 8 8 8 8 8 8 7 6 5 5
4 4 3 3 4 6 7 7 6 4 3 2 2 1 4 5 7 13 13 13 12 10 9 8 7 7 7 7 7 7 7 7 8 8 8 8 7 7 7 6 5 4 3
6 4 4 3 3 5 5 5 5 3 3 2 2 2 1 3 4 10 14 13 12 11 11 9 8 8 7 7 7 7 7 7 7 7 7 7 7 6 5 5 4 3 2
6 4 3 3 3 3 2 2 1 1 1 2 2 3 3 3 3 6 12 13 14 12 12 12 10 9 8 8 7 7 7 7 7 7 7 7 6 5 5 4 4 3 2
7 4 4 4 4 2 1 2 2 1 1 1 2 2 2 4 3 4 6 10 13 15 14 13 13 11 9 8 8 8 8 7 7 7 7 7 6 5 4 4 3 3 2
8 5 5 5 4 3 3 2 2 2 1 1 2 2 1 3 3 3 3 5 10 15 16 15 13 12 11 10 9 9 8 8 7 7 7 7 6 5 4 4 3 3 2
8 6 6 6 5 5 5 4 2 2 1 0 1 1 1 3 4 4 2 2 4 9 16 16 14 13 12 12 11 10 9 9 8 8 7 7 6 5 4 4 3 2 1
7 6 7 6 6 5 6 5 4 2 2 2 1 1 1 3 2 3 3 3 3 4 7 14 15 15 15 13 13 13 11 10 9 8 8 7 7 6 5 4 3 2 1
6 5 6 6 6 7 6 7 6 6 4 3 2 3 2 3 1 2 3 3 3 3 3 5 9 14 17 15 15 15 13 11 9 9 8 7 6 6 5 4 3 3 1
4 5 5 6 7 6 6 7 7 6 5 4 3 2 2 2 2 2 2 2 3 3 3 2 3 6 12 15 16 18 17 14 11 9 8 8 7 6 5 5 4 3 2
3 4 5 6 7 7 8 8 7 7 6 5 4 2 2 1 2 2 2 2 1 1 0 1 0 2 5 11 15 18 19 17 14 11 9 8 7 6 6 5 4 3 3
2 3 4 5 6 6 7 7 8 8 7 7 5 4 3 2 2 2 2 2 1 2 1 1 1 1 4 6 10 18 19 17 15 12 10 9 8 7 6 5 5 4 4
2 2 3 4 4 5 6 6 7 8 9 8 7 5 4 4 3 2 3 2 2 2 1 1 0 2 3 6 8 16 17 17 15 13 11 10 9 8 7 5 5 5 4
2 2 2 3 4 4 5 6 6 7 7 7 8 7 5 5 4 4 3 3 2 2 1 1 1 1 3 5 7 11 12 15 14 13 12 11 10 9 7 6 5 4 4
3 3 2 0 2 4 5 5 5 5 6 6 7 7 5 5 5 5 4 4 4 3 3 2 1 1 2 5 7 5 6 12 14 13 12 11 10 9 8 6 5 4 4
6 5 4 2 2 1 3 4 4 4 4 5 5 6 6 5 5 5 4 4 4 4 3 2 2 1 1 3 5 3 4 10 12 12 11 10 9 8 6 5 4 4 4
6 5 5 4 4 3 3 3 2 3 4 4 4 5 6 6 5 5 4 4 3 3 3 1 1 1 1 1 2 2 4 7 8 9 8 8 7 5 4 2 2 3 4
8 7 6 6 6 6 5 4 3 2 2 3 3 4 4 5 5 5 4 4 4 3 3 3 2 1 1 1 1 1 2 5 7 8 7 6 6 5 4 3 2 0 1
9 9 9 8 7 7 6 6 4 3 3 4 4 4 4 5 5 4 4 4 4 3 3 3 2 1 1 1 1 1 2 4 7 8 8 8 9 9 8 7 6 4 3
10 10 9 9 9 8 8 7 5 4 5 5 5 4 4 4 4 4 4 4 4 4 3 3 3 2 2 2 2 2 3 3 4 6 9 11 12 13 12 11 9 8 7
10 9 9 9 9 8 8 8 5 4 4 5 5 5 5 6 6 4 4 4 4 4 4 3 3 2 2 2 2 2 4 4 4 4 6 6 8 9 10 11 11 11 10
9 9 10 9 9 9 11 12 8 4 4 5 5 5 5 7 8 9 9 8 6 4 4 3 3 4 3 2 3 4 4 4 3 3 5 6 7 7 9 10 12 12 12
9 9 9 9 9 11 14 13 11 6 5 4 4 4 5 6 6 6 8 9 9 8 5 4 5 3 3 2 3 4 3 4 4 4 6 5 5 6 8 11 13 13 13
7 8 8 8 8 11 15 14 11 6 6 6 5 5 5 6 5 6 8 8 9 8 6 6 6 5 4 3 3 4 5 6 6 4 4 4 3 4 6 9 12 14 14
6 7 7 8 8 10 15 15 11 5 6 7 7 8 7 7 9 9 8 9 9 7 11 13 12 11 11 11 7 5 5 6 5 2 2 3 3 3 3 3 8 12 14
5 6 7 7 8 9 13 15 12 5 6 6 7 8 12 10 9 8 7 7 7 5 5 6 7 8 8 9 9 5 4 5 4 3 1 3 3 3 3 2 3 6 8
Wind_Direction
210 227 209 192 196 196 195 206 219 228 222 224 213 195 168 187 145 137 144 150 148 149 152 152 145 143 142 140 139 137 138 136 133 133 132 130 128 126 125 123 119 116 112
198 216 225 206 213 208 189 196 218 240 234 223 249 177 148 175 143 142 149 155 155 155 158 159 155 152 149 145 146 147 147 147 143 141 140 137 134 130 131 133 133 132 125
209 211 213 210 214 222 215 210 226 220 210 201 207 238 184 159 155 149 152 159 163 165 165 163 161 160 158 154 151 151 151 149 147 148 146 145 145 144 146 149 154 155 151
225 204 208 213 218 223 230 212 220 227 220 215 214 199 195 161 193 164 162 168 166 168 170 170 168 167 167 164 162 160 156 155 154 153 151 152 155 157 159 163 166 172 181
233 199 204 209 211 190 210 236 190 201 226 238 247 212 191 163 198 193 184 178 165 161 166 174 172 169 171 173 173 169 165 162 160 159 159 160 163 165 164 166 173 188 208
224 210 205 205 197 182 192 215 193 187 209 211 259 247 190 174 193 205 208 173 165 164 162 169 173 177 179 177 176 173 171 169 168 167 165 163 160 162 166 170 181 196 221
223 211 210 204 199 196 189 192 189 176 208 251 258 323 306 226 197 186 207 191 179 165 161 170 179 178 180 184 180 179 179 177 174 173 171 167 164 163 165 171 179 187 195
231 220 207 198 197 196 193 192 179 169 193 198 171 163 292 308 290 193 191 208 200 165 176 179 179 174 174 176 185 183 182 182 180 177 174 170 166 164 164 161 159 161 158
231 221 205 195 198 194 193 193 187 179 192 201 174 156 174 220 261 284 208 201 210 187 200 187 181 176 171 172 176 182 179 178 180 181 178 173 170 168 165 166 165 160 154
236 226 213 202 198 198 194 195 188 179 174 199 206 190 197 162 164 255 272 214 211 199 196 197 197 178 166 164 169 175 180 181 183 184 183 182 181 183 183 183 182 183 184
238 224 215 206 201 200 199 195 186 181 182 190 194 189 215 223 214 192 247 286 302 275 168 142 112 125 141 154 165 173 177 182 185 186 188 187 189 191 193 195 201 207 213
261 239 219 202 200 195 197 197 190 187 189 191 186 187 186 182 194 190 206 223 251 285 286 156 116 102 111 126 155 171 176 181 185 187 189 188 190 193 197 203 213 224 234
291 245 239 207 201 197 196 195 193 194 189 184 183 189 193 200 186 189 197 206 222 260 300 330 146 109 115 126 139 167 178 183 186 190 194 194 194 195 200 211 225 239 251
309 301 249 209 198 198 196 193 198 198 190 186 190 189 194 200 195 190 180 171 197 231 246 253 352 68 82 105 142 165 183 188 190 193 198 200 200 199 201 210 229 249 266
355 356 360 24 200 198 192 188 193 193 185 187 190 189 187 192 193 193 184 177 176 191 220 213 204 72 90 113 145 168 178 191 193 197 200 202 203 203 204 210 224 247 265
8 15 21 28 48 108 160 169 170 173 171 180 183 186 185 185 186 182 178 177 175 174 189 196 183 167 133 149 162 176 177 182 190 195 199 200 201 202 204 214 230 247 264
13 21 31 38 49 55 70 103 129 152 167 178 185 184 182 175 173 173 168 169 174 168 179 179 157 145 151 126 145 186 166 163 170 180 185 186 188 186 183 198 230 256 268
20 26 38 41 48 50 53 64 76 102 143 151 154 150 151 151 148 151 159 165 170 171 162 166 158 145 139 127 141 164 150 148 142 153 159 158 153 139 126 118 102 41 303
24 28 35 41 46 47 45 47 51 66 82 96 109 123 129 137 146 152 156 156 158 152 140 147 150 150 132 133 121 121 121 113 126 135 126 116 112 104 97 89 79 68 54
27 32 35 40 43 45 42 38 39 52 67 72 78 90 104 119 140 154 156 152 147 142 141 142 145 147 143 142 130 127 112 103 106 115 105 103 100 90 82 76 72 69 64
29 31 37 41 39 41 35 27 26 46 65 72 71 82 95 102 101 113 127 134 136 138 143 143 141 128 128 126 141 131 117 104 85 102 103 98 94 82 72 67 65 66 66
29 32 39 44 41 38 31 29 31 33 56 70 71 78 98 101 102 97 96 96 103 121 125 126 124 122 126 129 127 126 127 123 105 102 99 89 83 74 66 65 67 68 67
31 35 38 42 44 35 33 30 26 33 52 67 69 74 92 94 97 101 95 85 71 70 94 117 116 120 123 135 131 128 129 117 114 126 105 93 85 80 75 69 70 68 66
31 33 36 38 41 34 30 28 27 45 55 65 63 61 74 75 77 85 94 82 69 55 68 86 94 83 81 86 106 121 119 102 94 90 98 99 96 89 87 78 72 71 68
29 35 38 37 42 35 28 27 25 44 60 63 63 57 58 65 68 84 97 97 91 78 74 86 93 90 80 74 79 94 105 115 114 102 73 98 121 111 101 91 80 74 73
30 41 44 42 46 43 33 31 27 35 51 60 61 58 54 57 60 82 96 99 101 104 104 94 84 77 72 69 75 87 109 119 120 111 79 91 142 135 116 114 120 93 79
Height
1541 1543 1544 1545 1546 1547 1548 1550 1551 1552 1555 1556 1558 1559 1559 1560 1561 1560 1561 1562 1562 1562 1562 1563 1564 1565 1566 1567 1568 1569 1570 1571 1572 1574 1575 1576 1577 1578 1579 1580 1581 1582 1582
1538 1539 1541 1542 1543 1545 1547 1548 1549 1551 1553 1555 1556 1557 1558 1559 1560 1559 1560 1561 1562 1562 1562 1562 1563 1564 1565 1566 1567 1568 1570 1571 1572 1573 1575 1576 1577 1578 1579 1580 1581 1581 1582
1534 1536 1537 1538 1540 1542 1544 1545 1547 1549 1551 1552 1554 1556 1557 1558 1559 1559 1559 1560 1560 1561 1561 1562 1562 1563 1564 1566 1567 1568 1569 1570 1572 1573 1574 1575 1576 1577 1578 1579 1580 1581 1581
1529 1531 1533 1534 1536 1538 1540 1542 1544 1546 1548 1550 1552 1554 1555 1556 1558 1558 1558 1558 1559 1560 1560 1561 1562 1563 1564 1565 1566 1567 1568 1570 1571 1572 1573 1574 1576 1577 1577 1578 1579 1580 1581
1524 1526 1528 1530 1532 1534 1536 1539 1540 1543 1545 1547 1549 1551 1552 1554 1555 1557 1557 1558 1557 1558 1559 1560 1561 1562 1563 1564 1565 1566 1567 1569 1570 1571 1572 1573 1574 1575 1576 1577 1578 1579 1579
1520 1521 1523 1525 1527 1529 1532 1535 1536 1539 1542 1544 1546 1548 1550 1551 1553 1554 1556 1557 1557 1557 1558 1559 1560 1561 1562 1563 1564 1565 1566 1567 1569 1570 1571 1572 1573 1574 1575 1576 1577 1577 1578
1515 1517 1518 1520 1523 1525 1527 1530 1533 1535 1538 1541 1544 1545 1547 1548 1550 1551 1553 1555 1556 1556 1557 1558 1559 1560 1561 1562 1563 1564 1565 1566 1567 1568 1569 1571 1572 1573 1573 1574 1575 1575 1576
1510 1512 1513 1515 1517 1520 1523 1526 1528 1531 1533 1537 1540 1542 1544 1546 1547 1548 1550 1552 1554 1555 1555 1556 1556 1558 1559 1561 1562 1563 1564 1565 1566 1567 1568 1569 1570 1571 1572 1573 1573 1574 1574
1505 1506 1508 1510 1512 1515 1517 1520 1523 1526 1528 1532 1536 1539 1540 1541 1543 1545 1547 1548 1550 1552 1554 1555 1555 1556 1557 1558 1560 1561 1562 1564 1565 1566 1567 1568 1569 1570 1570 1571 1572 1572 1573
1500 1501 1503 1505 1507 1510 1512 1515 1518 1521 1524 1527 1531 1534 1537 1539 1541 1541 1544 1545 1547 1549 1551 1552 1554 1555 1555 1556 1558 1559 1561 1562 1563 1564 1565 1566 1567 1568 1569 1570 1570 1571 1571
1495 1497 1498 1500 1502 1505 1507 1510 1513 1516 1519 1522 1526 1529 1532 1535 1537 1539 1540 1542 1544 1545 1547 1549 1551 1552 1553 1554 1555 1557 1559 1560 1562 1563 1564 1565 1566 1566 1567 1568 1569 1569 1569
1492 1493 1495 1496 1498 1500 1503 1505 1508 1511 1514 1517 1520 1524 1527 1530 1532 1535 1537 1539 1541 1542 1544 1546 1547 1549 1550 1551 1553 1554 1556 1558 1559 1561 1562 1563 1564 1565 1565 1566 1567 1567 1568
1489 1490 1492 1493 1494 1496 1499 1501 1504 1506 1509 1512 1515 1519 1522 1526 1529 1532 1534 1536 1538 1539 1541 1542 1544 1545 1547 1548 1550 1551 1553 1555 1557 1558 1560 1561 1562 1563 1564 1564 1565 1565 1566
1488 1488 1489 1490 1492 1493 1495 1498 1500 1503 1505 1508 1511 1514 1517 1521 1524 1527 1530 1532 1534 1536 1537 1539 1540 1542 1543 1544 1546 1548 1550 1552 1553 1555 1557 1558 1559 1560 1561 1562 1563 1563 1563
1487 1487 1488 1488 1490 1491 1493 1494 1497 1499 1501 1504 1507 1510 1513 1516 1519 1522 1525 1528 1531 1532 1534 1535 1537 1538 1539 1541 1543 1544 1546 1548 1550 1552 1553 1555 1556 1557 1558 1559 1560 1561 1561
1487 1487 1487 1487 1488 1489 1491 1492 1494 1496 1498 1500 1503 1506 1509 1512 1515 1518 1521 1523 1526 1528 1530 1532 1533 1535 1536 1537 1539 1541 1543 1545 1546 1548 1550 1552 1553 1554 1555 1556 1557 1558 1558
1489 1488 1488 1488 1488 1489 1490 1491 1493 1494 1496 1499 1501 1503 1506 1508 1511 1514 1517 1519 1522 1524 1526 1529 1530 1532 1534 1535 1536 1538 1540 1542 1543 1545 1546 1548 1550 1551 1552 1553 1554 1554 1555
1491 1490 1489 1489 1489 1489 1490 1491 1492 1494 1495 1497 1499 1502 1504 1506 1509 1512 1514 1516 1519 1521 1523 1525 1527 1530 1531 1533 1534 1536 1538 1539 1540 1542 1544 1545 1547 1548 1549 1550 1551 1551 1551
1493 1492 1491 1490 1490 1490 1491 1492 1493 1494 1495 1497 1499 1501 1503 1505 1508 1510 1512 1514 1516 1519 1521 1523 1525 1527 1529 1531 1532 1534 1536 1537 1538 1540 1542 1543 1544 1546 1547 1547 1548 1548 1548
1496 1494 1493 1492 1492 1492 1492 1493 1494 1495 1496 1498 1499 1501 1503 1505 1507 1509 1511 1513 1515 1517 1519 1521 1523 1525 1527 1529 1531 1532 1534 1536 1537 1539 1540 1541 1543 1544 1544 1545 1546 1546 1546
1499 1497 1496 1495 1494 1494 1494 1494 1495 1496 1497 1498 1500 1501 1503 1505 1506 1508 1510 1512 1514 1516 1518 1520 1522 1524 1526 1528 1530 1531 1533 1535 1536 1538 1539 1540 1541 1542 1543 1544 1544 1543 1543
1502 1500 1498 1497 1496 1496 1496 1496 1497 1497 1498 1500 1501 1502 1504 1505 1507 1509 1511 1512 1514 1516 1518 1520 1522 1523 1525 1527 1529 1530 1532 1534 1536 1538 1539 1540 1541 1542 1542 1542 1542 1542 1541
1505 1503 1501 1500 1499 1498 1498 1498 1498 1499 1500 1501 1503 1504 1505 1507 1508 1510 1511 1513 1515 1517 1519 1520 1522 1524 1525 1527 1528 1530 1532 1534 1535 1537 1539 1539 1541 1541 1542 1542 1542 1541 1541
1508 1507 1505 1504 1502 1501 1501 1501 1501 1501 1502 1503 1505 1506 1507 1508 1510 1511 1513 1515 1516 1518 1519 1521 1522 1524 1526 1527 1528 1530 1531 1533 1535 1537 1539 1539 1541 1541 1542 1542 1542 1541 1540
1512 1510 1508 1507 1506 1505 1504 1504 1504 1504 1504 1505 1507 1508 1509 1510 1512 1513 1515 1516 1518 1519 1521 1523 1524 1525 1527 1528 1529 1530 1532 1533 1535 1537 1539 1539 1540 1541 1542 1542 1542 1541 1541
1515 1513 1512 1511 1509 1508 1507 1507 1506 1507 1507 1508 1509 1510 1511 1512 1514 1515 1516 1518 1519 1521 1523 1524 1525 1527 1528 1529 1530 1531 1532 1533 1535 1537 1538 1539 1540 1541 1542 1543 1542 1542 1541